Weather History for Winslow, AZ

Change the Weather History Date:

Sunday, March 31, 2013

  Actual Average Record
Temperature  
Mean Temperature 57 °F 50 °F  
Max Temperature 78 °F 67 °F 82 °F (2012)
Min Temperature 36 °F 33 °F 17 °F (1924)
Degree Days  
Heating Degree Days 8 15  
Month to date heating degree days 463 559  
Since 1 July heating degree days 3851 4053  
Cooling Degree Days 0 0  
Month to date cooling degree days 0 0  
Year to date cooling degree days 0 0  
Growing Degree Days 7 (Base 50)    
Moisture  
Dew Point 24 °F    
Average Humidity 34    
Maximum Humidity 54    
Minimum Humidity 13    
Precipitation  
Precipitation 0.00 in 0.02 in 0.47 in (1970)
Month to date precipitation 0.34 0.54  
Year to date precipitation 1.48 1.52  
Sea Level Pressure  
Sea Level Pressure 29.96 in    
Wind  
Wind Speed 9 mph (SSW)    
Max Wind Speed 23 mph    
Max Gust Speed 30 mph    
Visibility 10 miles    
Events      
T = Trace of Precipitation, MM = Missing Value Source: NWS Daily Summary

Daily Weather History Graph

Daily Weather History Graph

Search for Another Location

Airport:

Trip Planner

Search our weather history database for the weather conditions in past years. The results will help you decide how hot, cold, wet, or windy it might be!

Date:

Astronomy

Mar. 31, 2013 Rise Set
Actual Time 6:10 AM MST 6:43 PM MST
Civil Twilight 5:45 AM MST 7:09 PM MST
Nautical Twilight 5:15 AM MST 7:39 PM MST
Astronomical Twilight 4:44 AM MST 8:09 PM MST
Moon 11:46 PM MST (3/31) 9:11 AM MST (3/31)
Length of Visible Light 13h 23m
Length of Day
12h 33m
Waning Gibbous, 76% of the Moon is Illuminated
Mar 31
Waning Gibbous
Apr 2
Last Quarter
Apr 10
New
Apr 18
First Quarter
Apr 25
Full

Hourly Weather History & Observations

Time (MST) Temp. Windchill Dew Point Humidity Pressure Visibility Wind Dir Wind Speed Gust Speed Precip Events Conditions
12:56 AM 50.0 °F - 26.1 °F 39% 29.99 in 10.0 mi North 4.6 mph - N/A   Clear
1:56 AM 48.9 °F - 25.0 °F 39% 29.97 in 10.0 mi North 3.5 mph - N/A   Clear
2:56 AM 43.0 °F - 24.1 °F 47% 29.99 in 10.0 mi Calm Calm - N/A   Clear
3:56 AM 39.9 °F 37.8 °F 24.1 °F 53% 30.00 in 10.0 mi SE 3.5 mph - N/A   Clear
4:56 AM 39.0 °F - 24.1 °F 55% 30.01 in 10.0 mi Calm Calm - N/A   Clear
5:56 AM 37.0 °F 32.4 °F 23.0 °F 57% 30.04 in 10.0 mi ESE 5.8 mph - N/A   Clear
6:56 AM 39.0 °F 34.8 °F 23.0 °F 53% 30.07 in 10.0 mi SE 5.8 mph - N/A   Clear
7:56 AM 46.9 °F - 25.0 °F 42% 30.07 in 10.0 mi ESE 6.9 mph - N/A   Clear
8:56 AM 54.0 °F - 27.0 °F 35% 30.05 in 10.0 mi ESE 4.6 mph - N/A   Clear
9:56 AM 61.0 °F - 27.0 °F 27% 30.03 in 10.0 mi Calm Calm - N/A   Clear
10:56 AM 66.9 °F - 26.1 °F 21% 30.00 in 10.0 mi Variable 3.5 mph - N/A   Clear
11:56 AM 71.1 °F - 25.0 °F 18% 29.97 in 10.0 mi WNW 5.8 mph - N/A   Clear
12:56 PM 72.0 °F - 25.0 °F 17% 29.94 in 10.0 mi Variable 5.8 mph - N/A   Clear
1:56 PM 78.1 °F - 24.1 °F 14% 29.88 in 10.0 mi SW 12.7 mph 21.9 mph N/A   Mostly Cloudy
2:56 PM 77.0 °F - 24.1 °F 14% 29.87 in 10.0 mi SSW 16.1 mph 25.3 mph N/A   Scattered Clouds
3:56 PM 75.9 °F - 21.9 °F 13% 29.88 in 10.0 mi West 17.3 mph 24.2 mph N/A   Clear
4:56 PM 73.9 °F - 23.0 °F 15% 29.88 in 10.0 mi SW 19.6 mph 25.3 mph N/A   Clear
5:56 PM 71.1 °F - 24.1 °F 17% 29.89 in 10.0 mi WSW 16.1 mph 23.0 mph N/A   Clear
6:56 PM 66.0 °F - 21.9 °F 19% 29.91 in 10.0 mi SW 15.0 mph - N/A   Clear
7:56 PM 60.1 °F - 21.9 °F 23% 29.92 in 10.0 mi SSW 13.8 mph - N/A   Clear
8:56 PM 57.9 °F - 24.1 °F 27% 29.91 in 10.0 mi SW 17.3 mph - N/A   Clear
9:56 PM 55.0 °F - 23.0 °F 29% 29.91 in 10.0 mi SW 12.7 mph - N/A   Clear
10:56 PM 53.1 °F - 23.0 °F 31% 29.90 in 10.0 mi SE 3.5 mph - N/A   Clear
11:56 PM 54.0 °F - 23.0 °F 30% 29.88 in 10.0 mi SSW 15.0 mph - N/A   Clear